FW4272 Weather Reports


time (UTC)temp
F
wind
direction
speed
knots
gust
knots
rain 1hr
in
rain 24hr
in
rain mn
in
humidity
%
barometer
mb
20260507231501 53 241 1.7 3.5 0.00 0.63 0.63 92 1001.8
20260507230004 52 241 0.9 1.7 0.00 0.63 0.63 92 1001.7
20260507224603 51 241 0.0 8.7 0.00 0.63 0.63 90 1001.7
20260507223056 53 192 5.2 12.2 0.00 0.63 0.63 92 1001.5
20260507221555 53 134 7.8 13.9 0.00 0.63 0.63 92 1001.2
20260507220054 53 131 7.8 11.3 0.00 0.63 0.63 92 1001.2
20260507214559 53 140 7.8 15.6 0.00 0.63 0.63 92 1001.2
20260507213053 54 106 10.4 15.6 0.01 0.63 0.63 92 1001.3
20260507211553 54 96 10.4 18.2 0.01 0.63 0.63 92 1001.3
20260507210053 54 134 11.3 20.0 0.01 0.63 0.63 92 1001.3
20260507204556 54 129 9.6 16.5 0.01 0.63 0.63 92 1001.4
20260507203051 54 131 9.6 16.5 0.00 0.62 0.62 93 1001.0
20260507201557 53 104 11.3 16.5 0.04 0.62 0.62 93 1001.1
20260507200049 53 97 9.6 19.1 0.09 0.62 0.62 93 1000.5
20260507194547 53 96 12.2 20.0 0.10 0.62 0.62 92 1000.6
20260507193047 54 81 10.4 18.2 0.12 0.62 0.62 92 1001.4
20260507191536 54 101 9.6 14.8 0.11 0.57 0.57 92 1002.2
20260507190032 55 110 8.7 18.2 0.11 0.54 0.54 92 1002.8
20260507184530 55 99 8.7 14.8 0.16 0.52 0.52 92 1002.9
20260507183030 54 117 9.6 15.6 0.21 0.50 0.50 92 1002.8
20260507181528 54 137 12.2 21.7 0.34 0.47 0.47 92 1003.3
20260507180027 54 129 11.3 18.2 0.40 0.43 0.43 92 1003.3
20260507174535 55 144 12.2 17.4 0.36 0.36 0.36 91 1003.7
20260507173027 55 140 10.4 20.9 0.28 0.28 0.28 90 1004.2
20260507171520 55 146 14.8 24.3 0.13 0.13 0.13 89 1003.6
20260507170027 57 164 13.9 26.1 0.02 0.02 0.02 86 1003.3
20260507164517 58 145 13.9 33.0 0.00 0.00 0.00 83 1003.1
20260507163016 59 148 20.9 34.8 0.00 0.00 0.00 81 1002.9
20260507161515 59 126 20.9 34.8 0.00 0.00 0.00 80 1003.5
20260507160015 60 158 21.7 34.8 0.00 0.00 0.00 79 1003.5
20260507154512 60 135 20.9 31.3 0.00 0.00 0.00 79 1003.8
20260507153010 60 148 21.7 33.0 0.00 0.00 0.00 79 1003.9
20260507151507 61 149 18.2 33.0 0.00 0.00 0.00 77 1004.3
20260507150004 61 123 19.1 33.0 0.00 0.00 0.00 77 1004.9
20260507144556 61 157 19.1 31.3 0.00 0.00 0.00 76 1005.2
20260507143155 61 162 19.1 32.2 0.00 0.00 0.00 77 1005.4
20260507141553 60 144 24.3 35.6 0.00 0.00 0.00 78 1005.3
20260507140051 60 166 20.9 36.5 0.00 0.00 0.00 80 1005.9
20260507134552 60 146 19.1 29.5 0.00 0.00 0.00 81 1005.8
20260507133048 60 165 19.1 36.5 0.00 0.00 0.00 80 1005.6
20260507131556 60 135 22.6 38.2 0.00 0.00 0.00 80 1005.9
20260507130050 59 129 18.2 26.9 0.00 0.00 0.00 80 1006.2
20260507124547 59 153 20.9 33.9 0.00 0.00 0.00 80 1006.5
20260507123037 59 125 20.0 31.3 0.00 0.00 0.00 83 1006.5
20260507121533 58 129 17.4 33.9 0.00 0.00 0.00 86 1007.2
20260507120038 58 152 17.4 30.4 0.00 0.00 0.00 87 1006.6
20260507114525 57 108 16.5 27.8 0.00 0.00 0.00 89 1006.6
20260507113023 56 137 19.1 34.8 0.00 0.00 0.00 90 1007.3
20260507111517 56 144 15.6 32.2 0.00 0.00 0.00 89 1007.7
20260507110017 57 165 19.1 26.9 0.00 0.00 0.00 88 1008.4
20260507104516 57 177 14.8 25.2 0.00 0.00 0.00 87 1008.5
20260507103013 57 131 13.0 23.5 0.00 0.00 0.00 88 1008.0
20260507101508 55 126 12.2 20.9 0.00 0.00 0.00 89 1008.2
20260507100003 55 150 12.2 19.1 0.00 0.00 0.00 90 1008.5
20260507094600 54 139 10.4 19.1 0.00 0.00 0.00 90 1009.4
20260507093059 54 123 13.9 20.0 0.00 0.00 0.00 90 1009.6
20260507091557 54 148 8.7 20.0 0.00 0.00 0.00 90 1009.6
20260507090055 54 116 9.6 15.6 0.00 0.00 0.00 90 1009.9
20260507084546 54 133 7.8 17.4 0.00 0.00 0.00 90 1010.3
20260507083041 53 90 9.6 15.6 0.00 0.00 0.00 90 1010.0
20260507081548 53 106 11.3 18.2 0.00 0.00 0.00 90 1010.0
20260507080038 52 160 13.0 20.0 0.00 0.00 0.00 89 1010.0
20260507074551 53 145 13.0 23.5 0.00 0.00 0.00 89 1010.0
20260507073029 53 115 12.2 20.0 0.00 0.00 0.00 88 1010.6
20260507071525 53 146 9.6 18.2 0.00 0.00 0.00 88 1011.2
20260507070023 53 167 11.3 18.2 0.00 0.00 0.00 87 1011.7
20260507064521 53 140 13.9 21.7 0.00 0.00 0.00 87 1011.6
20260507063025 53 131 11.3 18.2 0.00 0.00 0.00 86 1011.3
20260507061519 53 144 13.0 20.0 0.00 0.00 0.00 86 1011.8
20260507060016 53 162 12.2 22.6 0.00 0.00 0.00 85 1011.6
20260507054510 53 93 12.2 20.0 0.00 0.00 0.00 83 1011.8
20260507053003 54 126 12.2 20.0 0.00 0.00 0.00 82 1012.2
20260507051558 54 108 11.3 19.1 0.00 0.00 0.00 81 1012.6
20260507050056 54 104 11.3 17.4 0.00 0.00 0.00 82 1013.3
20260507044552 54 123 13.0 19.1 0.00 0.00 0.00 80 1013.6
20260507043045 55 102 12.2 21.7 0.00 0.00 0.00 79 1013.9
20260507041540 55 129 13.0 21.7 0.00 0.00 0.00 78 1014.2
20260507040033 55 110 11.3 19.1 0.00 0.00 0.00 78 1014.5
20260507034525 56 146 10.4 17.4 0.00 0.00 0.00 77 1015.2
20260507033023 56 157 11.3 14.8 0.00 0.00 0.00 78 1015.2
20260507031516 55 144 10.4 15.6 0.00 0.00 0.00 78 1015.7
20260507030011 56 131 9.6 13.0 0.00 0.00 0.00 78 1015.9
20260507024509 56 134 9.6 15.6 0.00 0.00 0.00 77 1016.1
20260507023008 56 139 8.7 13.9 0.00 0.00 0.00 77 1016.4
20260507021506 56 121 7.8 15.6 0.00 0.00 0.00 77 1016.3
20260507020006 56 117 7.0 15.6 0.00 0.00 0.00 78 1016.5
20260507014504 56 125 10.4 15.6 0.00 0.00 0.00 77 1016.4
20260507013002 56 131 7.8 13.9 0.00 0.00 0.00 77 1016.6
20260507011502 56 139 7.0 13.0 0.00 0.00 0.00 76 1016.7
20260507010113 57 138 7.8 14.8 0.00 0.00 0.00 75 1016.8
20260507004559 57 161 7.8 13.0 0.00 0.00 0.00 75 1016.9
20260507003058 57 136 8.7 13.0 0.00 0.00 0.00 74 1016.9
20260507001603 58 139 7.8 13.0 0.00 0.00 0.00 73 1016.8
20260507000056 59 176 7.8 15.6 0.00 0.00 0.00 72 1016.9
20260506234556 59 147 8.7 13.9 0.00 0.00 0.00 71 1016.8
20260506233109 60 191 8.7 15.6 0.00 0.00 0.00 70 1016.6